Location: Amherst
(42.5000°N, 72.5000°W)
Time: 10:02:19
(UTC-04:00)

ISS - Pass Details

Date: 17 May 2018
Orbit: 402 x 407 km, 51.6° (Epoch: 23 May)

Event Time Altitude Azimuth Distance (km) Brightness Sun altitude
Exits shadow 02:49:32 - 307° (NW) 1,830 -0.4 -22.0°
Reaches altitude 10° 02:50:46 10° 321° (NW) 1,458 -0.8 -21.8°
Maximum altitude 02:52:57 16° 2° (N) 1,135 -0.8 -21.6°
Drops below altitude 10° 02:55:07 10° 44° (NE) 1,458 0.1 -21.4°
Sets 02:57:45 0° 67° (ENE) 2,317 0.9 -21.2°
